Weather in Rzhanitsa

Russia / Bryansk Oblast     53°25′53″N   33°54′53″E
temp.,
°C
wind,
m/s
gust,
m/s
humid.,
%
clouds,
%
prec.,
mm/h
press.,
hPa
HPBL,
m
16 april, fri
fri1600:00+9ene3793100 0.7 1013251
03:00+9ne399378 1.1 1012269
06:00+7e39955 0.1 1013268
09:00+11ese48786 0.1 1014717
12:00+13se595498 0.1 10151975
15:00+13se48565 0.1 10151130
18:00+13sse3758100 0.0 1015811
21:00+9ese277487 0.0 1016249
17 april, sat
sat1700:00+6ese23888 0.0 101762
03:00+6e25905 0.0 101899
06:00+5e239278 0.0 101859
09:00+10ene1365100 0.0 1018370
12:00+12nnw2464100 0.3 10171156
15:00+9ne4992100 3.4 1016610
18:00+9ene3888100 1.1 1016581
21:00+8ne3797100 1.3 1016383
18 april, sun
sun1800:00+7ese4893100 1.1 1015692
03:00+5e5992100 1.1 1016783
06:00+5e61179100 0.1 10171171
09:00+5e499099 0.1 1018784
12:00+10e476380 0.3 10181459
15:00+11e4756100 0.6 10171983
18:00+10e486291 0.2 10181213
21:00+6ne4118472 0.3 1018348
19 april, mon
mon1900:00+6ne4989100 0.1 1019659
03:00+6ne4993100 1.3 1018947
06:00+6ne5993100 1.4 10171019
09:00+5ne5996100 4.4 1017968
12:00+7ne489175 0.8 1017749
15:00+9ne4787100 2.4 10161002
18:00+9e3681100 2.4 1015613
21:00+7ene4109595 2.9 1015362
20 april, tue
tue2000:00+8e4129197 0.8 1014527
03:00+7e5139390 0.9 1014570
06:00+6ene61291100 0.1 1011697
09:00+6ene71593100 1.1 10081147
12:00+6ne81891100 4.0 10031314
15:00+6ene81892100 12.2 9981400
18:00+8ene41096100 7.4 995488
21:00+9e4996100 8.1 995307